TimeCST,TemperatureF,Dew PointF,Humidity,Sea Level PressureIn,VisibilityMPH,Wind Direction,Wind SpeedMPH,Gust SpeedMPH,PrecipitationIn,Events,Conditions,WindDirDegrees,DateUTC
12:53 AM,28.0,23.0,81,30.19,6.0,SSW,6.9,-,N/A,,Haze,200,2013-01-08 06:53:00
1:53 AM,26.1,21.9,84,30.19,6.0,South,4.6,-,N/A,,Clear,190,2013-01-08 07:53:00
2:53 AM,26.1,21.9,84,30.18,5.0,South,5.8,-,N/A,,Clear,180,2013-01-08 08:53:00
3:53 AM,26.1,21.9,84,30.18,5.0,South,5.8,-,N/A,,Clear,190,2013-01-08 09:53:00
4:53 AM,25.0,21.9,88,30.18,5.0,South,4.6,-,N/A,,Clear,190,2013-01-08 10:53:00
5:53 AM,25.0,21.9,88,30.19,5.0,SSW,4.6,-,N/A,,Clear,200,2013-01-08 11:53:00
6:53 AM,25.0,21.9,88,30.19,5.0,South,3.5,-,N/A,,Clear,190,2013-01-08 12:53:00
7:53 AM,26.1,23.0,88,30.21,4.0,South,5.8,-,N/A,,Clear,180,2013-01-08 13:53:00
8:53 AM,28.0,24.1,85,30.23,4.0,South,5.8,-,N/A,,Clear,190,2013-01-08 14:53:00
9:53 AM,30.9,26.1,82,30.23,5.0,South,8.1,-,N/A,,Haze,180,2013-01-08 15:53:00
10:53 AM,33.1,27.0,78,30.22,6.0,South,8.1,-,N/A,,Haze,190,2013-01-08 16:53:00
11:53 AM,36.0,28.0,73,30.20,6.0,SSW,6.9,-,N/A,,Haze,200,2013-01-08 17:53:00
12:53 PM,37.9,28.9,70,30.17,7.0,SSE,5.8,-,N/A,,Clear,160,2013-01-08 18:53:00
1:53 PM,39.0,28.9,67,30.17,8.0,SSE,8.1,-,N/A,,Clear,160,2013-01-08 19:53:00
2:53 PM,37.0,28.9,73,30.18,7.0,South,8.1,-,N/A,,Clear,170,2013-01-08 20:53:00
3:53 PM,37.9,28.9,70,30.17,8.0,South,9.2,-,N/A,,Clear,170,2013-01-08 21:53:00
4:53 PM,36.0,28.0,73,30.17,8.0,SSE,6.9,-,N/A,,Clear,160,2013-01-08 22:53:00
5:53 PM,34.0,27.0,75,30.17,9.0,SSE,8.1,-,N/A,,Clear,150,2013-01-08 23:53:00
6:53 PM,34.0,27.0,75,30.16,8.0,SSE,10.4,-,N/A,,Clear,160,2013-01-09 00:53:00
7:53 PM,33.1,27.0,78,30.16,8.0,South,6.9,-,N/A,,Clear,180,2013-01-09 01:53:00
8:53 PM,34.0,27.0,75,30.15,9.0,South,9.2,-,N/A,,Clear,180,2013-01-09 02:53:00
9:53 PM,37.0,28.9,73,30.13,10.0,South,11.5,-,N/A,,Mostly Cloudy,190,2013-01-09 03:53:00
11:53 PM,34.0,28.0,79,30.10,8.0,SSW,8.1,-,N/A,,Clear,200,2013-01-09 05:53:00